Simultaneous Nadir Overpasses (SNOs) Predictions

Prediction of SNOs between LANDSAT-8 and NOAA-19 Satellite Orbit:

Table of predicted SNOs for the next 14.0 days since TLE Epoch: 1/15/2022
Index Date (LANDSAT-8) Time (LANDSAT-8) Lat,Lon (LANDSAT-8) SZA (LANDSAT-8 ) Date (NOAA-19) Time (NOAA-19) Lat,Lon (NOAA-19) SZA (NOAA-19 ) Distance(km) Time Diff (sec)
1 01/15/2022 17:19:03 80.66, -45.91 102.96 01/15/2022 17:17:56 80.67, -45.78 102.95 2.58 67
2 01/15/2022 18:08:30 -80.66, 121.67 77.06 01/15/2022 18:08:54 -80.66, 121.80 77.05 2.26 24
3 01/17/2022 23:42:13 80.66,-141.73 102.50 01/17/2022 23:41:59 80.66,-141.59 102.51 2.50 14
4 01/20/2022 05:15:56 -80.68, -44.93 77.95 01/20/2022 05:15:00 -80.67, -44.78 77.97 3.26 56
5 01/20/2022 06:05:23 80.66, 122.42 102.00 01/20/2022 06:06:02 80.66, 122.57 102.03 2.65 39
6 01/22/2022 11:39:06 -80.68,-140.80 78.48 01/22/2022 11:39:03 -80.67,-140.84 78.49 0.84 3
7 01/24/2022 17:12:48 80.69, -44.03 101.02 01/24/2022 17:12:09 80.67, -44.13 100.98 2.74 39
8 01/24/2022 18:02:16 -80.66, 123.28 79.05 01/24/2022 18:03:05 -80.66, 123.44 79.02 2.97 49



Historial Predications of SNOs between LANDSAT-8 and NOAA-19
